Location: Ceske Budejovice
(48.9830°N, 14.4670°E)
Time: 18:36:53
(UTC+02:00)

ISS - Pass Details

Date: 10 July 2022
Orbit: 412 x 419 km, 51.6° (Epoch: 09 August)

Event Time Altitude Azimuth Distance (km) Brightness Sun altitude
Exits shadow 00:59:32 54° 242° (WSW) 513 -3.6 -18.7°
Maximum altitude 01:00:13 85° 160° (SSE) 423 -3.9 -18.7°
Drops below altitude 10° 01:03:35 10° 71° (ENE) 1,498 -0.7 -18.7°
Sets 01:05:42 0° 70° (ENE) 2,365 0.3 -18.8°
